HYSIS

Last updated on Mon Sep 07 2026 00:02:46 GMT+0000 (Coordinated Universal Time)

1 43719U 18096A 26249.61898034 .00001040 00000+0 14908-3 0 9999 2 43719 97.9770 315.6969 0000988 104.5558 255.5763 14.78642111419458
UTC large
Height (km)
Speed (km/s)
/
Latitude / Longitude
Inclination (degrees)
Orbital Period (minutes)
Azimuth
Elevation
Range (km)
Doppler Factor

Next 0 passes for location: London (51.5072 / 0.1276)

No passes found over London.
HYSIS